Weather History for Rocky Mount, NC

Change the Weather History Date:

Sunday, October 19, 2014

  Actual Average Record
Temperature  
Mean Temperature 54 °F -  
Max Temperature 64 °F 72 °F 84 °F (2005)
Min Temperature 43 °F 46 °F 35 °F (1970)
Degree Days  
Heating Degree Days 12    
Growing Degree Days 4 (Base 50)    
Moisture  
Dew Point 43 °F    
Average Humidity 70    
Maximum Humidity 97    
Minimum Humidity 39    
Precipitation  
Precipitation 0.01 in - - ()
Sea Level Pressure  
Sea Level Pressure 30.05 in    
Wind  
Wind Speed 6 mph (NW)    
Max Wind Speed 14 mph    
Max Gust Speed 23 mph    
Visibility 10 miles    
Events Rain    
Averages and records for this station are not official NWS values.
T = Trace of Precipitation, MM = Missing Value Source: NWS Daily Summary

Daily Weather History Graph

Daily Weather History Graph

Search for Another Location

Airport:

Trip Planner

Search our weather history database for the weather conditions in past years. The results will help you decide how hot, cold, wet, or windy it might be!

Date:

Astronomy

Oct. 19, 2014 Rise Set
Actual Time 7:21 AM EDT 6:30 PM EDT
Civil Twilight 6:55 AM EDT 6:56 PM EDT
Nautical Twilight 6:26 AM EDT 7:26 PM EDT
Astronomical Twilight 5:56 AM EDT 7:56 PM EDT
Moon 3:20 AM EDT (10/19) 4:14 PM EDT (10/19)
Length of Visible Light 12h 00m
Length of Day
11h 09m
Waning Crescent, 17% of the Moon is Illuminated
Oct 19
Waning Crescent
Oct 23
New
Oct 30
First Quarter
Nov 6
Full
Nov 14
Last Quarter

Hourly Weather History & Observations

Time (EDT) Temp. Dew Point Humidity Pressure Visibility Wind Dir Wind Speed Gust Speed Precip Events Conditions
12:53 AM 55.0 °F 46.0 °F 72% 29.90 in 10.0 mi NW 8.1 mph - N/A   Clear
1:53 AM 55.0 °F 46.0 °F 72% 29.93 in 10.0 mi WNW 6.9 mph - N/A   Mostly Cloudy
2:53 AM 55.0 °F 46.0 °F 72% 29.94 in 10.0 mi WNW 6.9 mph - 0.00 in Rain Light Rain
3:53 AM 53.1 °F 46.9 °F 80% 29.96 in 10.0 mi West 5.8 mph - 0.01 in   Mostly Cloudy
4:53 AM 51.1 °F 46.0 °F 83% 29.96 in 10.0 mi NNW 3.5 mph - N/A   Mostly Cloudy
5:53 AM 48.0 °F 45.0 °F 89% 29.98 in 10.0 mi Calm Calm - N/A   Clear
6:53 AM 46.0 °F 44.1 °F 93% 30.01 in 10.0 mi Calm Calm - N/A   Clear
7:53 AM 46.0 °F 44.1 °F 93% 30.04 in 10.0 mi Calm Calm - N/A   Clear
8:53 AM 53.1 °F 46.0 °F 77% 30.07 in 10.0 mi NW 6.9 mph - N/A   Clear
9:53 AM 55.9 °F 43.0 °F 62% 30.10 in 10.0 mi NW 11.5 mph - N/A   Clear
10:53 AM 60.1 °F 41.0 °F 49% 30.11 in 10.0 mi NW 13.8 mph 19.6 mph N/A   Clear
11:53 AM 62.1 °F 41.0 °F 46% 30.11 in 10.0 mi NW 12.7 mph 20.7 mph N/A   Partly Cloudy
12:53 PM 62.1 °F 39.9 °F 44% 30.09 in 10.0 mi NW 8.1 mph 23.0 mph N/A   Clear
1:53 PM 64.0 °F 39.9 °F 41% 30.07 in 10.0 mi NW 12.7 mph - N/A   Clear
2:53 PM 64.9 °F 39.9 °F 40% 30.05 in 10.0 mi North 6.9 mph 17.3 mph N/A   Clear
3:53 PM 64.9 °F 39.0 °F 39% 30.06 in 10.0 mi NW 9.2 mph - N/A   Clear
4:53 PM 64.0 °F 39.9 °F 41% 30.06 in 10.0 mi NNW 9.2 mph - N/A   Clear
5:53 PM 62.1 °F 39.9 °F 44% 30.07 in 10.0 mi NNW 3.5 mph - N/A   Clear
6:53 PM 52.0 °F 46.0 °F 80% 30.09 in 10.0 mi Calm Calm - N/A   Clear
7:53 PM 48.9 °F 45.0 °F 86% 30.12 in 10.0 mi Calm Calm - N/A   Clear
8:53 PM 46.9 °F 45.0 °F 93% 30.13 in 10.0 mi Calm Calm - N/A   Clear
9:53 PM 45.0 °F 43.0 °F 93% 30.14 in 9.0 mi Calm Calm - N/A   Clear
10:53 PM 43.0 °F 42.1 °F 97% 30.14 in 8.0 mi Calm Calm - N/A   Clear
11:53 PM 43.0 °F 41.0 °F 93% 30.14 in 10.0 mi Calm Calm - N/A   Clear